WL7CLI Weather Reports


Display with metric or nautical units.
time (UTC)temp
F
wind
direction
speed
MPH
gust
MPH
rain 1hr
in
rain 24hr
in
rain mn
in
humidity
%
barometer
mb
20260504045824 57 254 0.0 0.0 0.00 0.00 0.00 48 1006.6
20260504042824 58 254 0.0 0.0 0.00 0.00 0.00 45 1006.8
20260504035824 59 254 0.0 0.0 0.00 0.00 0.00 42 1007.1
20260504032824 61 254 0.0 0.0 0.00 0.00 0.00 38 1007.6
20260504025824 62 254 0.0 0.0 0.00 0.00 0.00 35 1007.7
20260504022824 64 254 0.0 0.0 0.00 0.00 0.00 33 1007.6
20260504015824 66 254 0.0 0.0 0.00 0.00 0.00 31 1007.3
20260504012824 68 254 0.0 0.0 0.00 0.00 0.00 28 1007.2
20260504005824 71 254 0.0 6.0 0.00 0.00 0.00 26 1007.4
20260504002824 73 342 0.0 8.0 0.00 0.00 0.00 24 1007.4
20260503235824 74 315 0.0 8.0 0.00 0.00 0.00 24 1007.4
20260503232824 75 344 4.0 19.0 0.00 0.00 0.00 23 1007.4
20260503225824 75 323 0.0 19.0 0.00 0.00 0.00 25 1007.5
20260503222824 75 265 15.0 17.0 0.00 0.00 0.00 24 1007.6
20260503215824 75 323 4.0 23.0 0.00 0.00 0.00 27 1007.7
20260503212824 76 342 11.0 19.0 0.00 0.00 0.00 26 1007.7
20260503205824 78 355 2.0 21.0 0.00 0.00 0.00 28 1007.8
20260503202824 77 275 6.0 29.0 0.00 0.00 0.00 27 1008.2
20260503195824 77 327 4.0 25.0 0.00 0.00 0.00 28 1008.3
20260503192823 76 246 11.0 27.0 0.00 0.00 0.00 32 1008.5
20260503185824 76 240 8.0 23.0 0.00 0.00 0.00 28 1008.5
20260503182824 74 336 11.0 27.0 0.00 0.00 0.00 29 1008.6
20260503175824 74 321 2.0 23.0 0.00 0.00 0.00 31 1008.8
20260503172824 71 279 0.0 25.0 0.00 0.00 0.00 38 1008.8